Location: ??????
(41.3794°N, 22.5014°E)
Time: 07:40:28
(UTC+00:00)

Cosmos 1939 Rocket - Pass Details

Date: 30 November 2020
Orbit: 532 x 584 km, 97.4° (Epoch: 17 January)

Event Time Altitude Azimuth Distance (km) Brightness Sun altitude
Rises 15:56:40 0° 143° (SE) 2,671 6.1 -10.2°
Reaches altitude 10° 15:58:56 10° 132° (SE) 1,789 5.2 -10.6°
Maximum altitude 16:02:19 30° 71° (ENE) 990 3.5 -11.2°
Drops below altitude 10° 16:05:46 10° 9° (N) 1,821 5.2 -11.9°
Sets 16:08:05 0° 359° (N) 2,727 6.2 -12.3°
